User: anonymous   Login
Location: Unspecified
(0.0000°N, 0.0000°E)
Time: 10:47:45
(UTC+02:00)
Language:

SORCE - Orbit

View from above orbital plane
View from above orbital plane
View from above satellite
View from above satellite

Ground track
Ground track

The orbit data is extracted from the following two-line orbital elements,

1 27651U 03004A   21128.89473460  .00000072  00000-0  21593-4 0  9996
2 27651  39.9959 314.9332 0021728 152.0468 208.1492 14.89293214992726
Epoch (UTC): 08 May 2021 21:28:25
Eccentricity: 0.0021728
inclination: 39.9959°
perigee height: 585 km
apogee height: 615 km
right ascension of ascending node: 314.9332°
argument of perigee: 152.0468°
revolutions per day: 14.89293214
mean anomaly at epoch: 208.1492°
orbit number at epoch: 99272

The dashed part of the orbit path shows where the satellite is in the earth's shadow,  

DLR